TimeAKST,TemperatureF,Dew PointF,Humidity,Sea Level PressureIn,VisibilityMPH,Wind Direction,Wind SpeedMPH,Gust SpeedMPH,PrecipitationIn,Events,Conditions,WindDirDegrees,DateUTC
12:16 AM,17.6,17.6,100,30.35,10.0,Calm,Calm,-,N/A,,Mostly Cloudy,0,2013-12-08 09:16:00
12:36 AM,17.6,17.6,100,30.35,10.0,Calm,Calm,-,N/A,,Overcast,0,2013-12-08 09:36:00
12:56 AM,19.4,17.6,93,30.36,10.0,Calm,Calm,-,N/A,,Mostly Cloudy,0,2013-12-08 09:56:00
1:16 AM,19.4,19.4,100,30.36,10.0,Calm,Calm,-,N/A,,Partly Cloudy,0,2013-12-08 10:16:00
1:36 AM,19.4,19.4,100,30.36,10.0,Calm,Calm,-,N/A,,Mostly Cloudy,0,2013-12-08 10:36:00
1:56 AM,19.4,19.4,100,30.37,10.0,Calm,Calm,-,N/A,,Overcast,0,2013-12-08 10:56:00
2:16 AM,21.2,21.2,100,30.37,10.0,Calm,Calm,-,N/A,,Overcast,0,2013-12-08 11:16:00
2:36 AM,21.2,19.4,93,30.37,10.0,Calm,Calm,-,N/A,,Overcast,0,2013-12-08 11:36:00
2:56 AM,21.2,21.2,100,30.38,10.0,Calm,Calm,-,N/A,,Overcast,0,2013-12-08 11:56:00
3:16 AM,21.2,21.2,100,30.38,10.0,Calm,Calm,-,N/A,,Overcast,0,2013-12-08 12:16:00
3:36 AM,21.2,21.2,100,30.37,10.0,Calm,Calm,-,N/A,,Overcast,0,2013-12-08 12:36:00
3:56 AM,21.2,21.2,100,30.37,10.0,Calm,Calm,-,N/A,,Overcast,0,2013-12-08 12:56:00
4:16 AM,21.2,21.2,100,30.37,10.0,Calm,Calm,-,N/A,,Overcast,0,2013-12-08 13:16:00
4:36 AM,21.2,21.2,100,30.37,10.0,Calm,Calm,-,N/A,,Overcast,0,2013-12-08 13:36:00
4:56 AM,23.0,23.0,100,30.36,10.0,Calm,Calm,-,N/A,,Overcast,0,2013-12-08 13:56:00
5:16 AM,23.0,23.0,100,30.36,10.0,Calm,Calm,-,N/A,,Overcast,0,2013-12-08 14:16:00
5:36 AM,21.2,21.2,100,30.36,10.0,Calm,Calm,-,N/A,,Mostly Cloudy,0,2013-12-08 14:36:00
5:56 AM,21.2,21.2,100,30.36,10.0,Calm,Calm,-,N/A,,Scattered Clouds,0,2013-12-08 14:56:00
6:16 AM,19.4,19.4,100,30.36,10.0,Calm,Calm,-,N/A,,Scattered Clouds,0,2013-12-08 15:16:00
6:36 AM,19.4,19.4,100,30.36,10.0,Calm,Calm,-,N/A,,Clear,0,2013-12-08 15:36:00
6:56 AM,17.6,17.6,100,30.36,10.0,Calm,Calm,-,N/A,,Clear,0,2013-12-08 15:56:00
7:16 AM,17.6,17.6,100,30.36,10.0,Calm,Calm,-,N/A,,Clear,0,2013-12-08 16:16:00
7:36 AM,17.6,15.8,93,30.36,10.0,Calm,Calm,-,N/A,,Clear,0,2013-12-08 16:36:00
7:56 AM,17.6,17.6,100,30.36,10.0,Calm,Calm,-,N/A,,Clear,0,2013-12-08 16:56:00
8:16 AM,17.6,17.6,100,30.36,10.0,Calm,Calm,-,N/A,,Clear,0,2013-12-08 17:16:00
8:36 AM,17.6,15.8,93,30.36,10.0,Calm,Calm,-,N/A,,Clear,0,2013-12-08 17:36:00
8:56 AM,19.4,19.4,100,30.36,10.0,Calm,Calm,-,N/A,,Clear,0,2013-12-08 17:56:00
9:16 AM,17.6,17.6,100,30.36,10.0,Calm,Calm,-,N/A,,Clear,0,2013-12-08 18:16:00
9:36 AM,17.6,15.8,93,30.36,10.0,Calm,Calm,-,N/A,,Clear,0,2013-12-08 18:36:00
9:56 AM,15.8,15.8,100,30.36,10.0,Calm,Calm,-,N/A,,Clear,0,2013-12-08 18:56:00
10:16 AM,15.8,15.8,100,30.36,10.0,Calm,Calm,-,N/A,,Clear,0,2013-12-08 19:16:00
10:36 AM,15.8,14.0,93,30.36,10.0,Calm,Calm,-,N/A,,Scattered Clouds,0,2013-12-08 19:36:00
10:56 AM,15.8,15.8,100,30.36,10.0,Calm,Calm,-,N/A,,Scattered Clouds,0,2013-12-08 19:56:00
11:16 AM,15.8,15.8,100,30.35,10.0,Calm,Calm,-,N/A,,Clear,0,2013-12-08 20:16:00
11:36 AM,17.6,17.6,100,30.35,10.0,Calm,Calm,-,N/A,,Clear,0,2013-12-08 20:36:00
11:56 AM,17.6,17.6,100,30.35,10.0,Calm,Calm,-,N/A,,Clear,0,2013-12-08 20:56:00
12:16 PM,17.6,17.6,100,30.35,10.0,Calm,Calm,-,N/A,,Clear,0,2013-12-08 21:16:00
12:36 PM,19.4,19.4,100,30.35,10.0,Calm,Calm,-,N/A,,Clear,0,2013-12-08 21:36:00
12:56 PM,19.4,17.6,93,30.34,10.0,Calm,Calm,-,N/A,,Clear,0,2013-12-08 21:56:00
1:16 PM,19.4,19.4,100,30.34,10.0,Calm,Calm,-,N/A,,Clear,0,2013-12-08 22:16:00
1:36 PM,21.2,21.2,100,30.33,10.0,Calm,Calm,-,N/A,,Clear,0,2013-12-08 22:36:00
1:56 PM,21.2,21.2,100,30.33,10.0,Calm,Calm,-,N/A,,Clear,0,2013-12-08 22:56:00
2:16 PM,21.2,21.2,100,30.32,10.0,Calm,Calm,-,N/A,,Clear,0,2013-12-08 23:16:00
2:36 PM,19.4,19.4,100,30.31,10.0,Calm,Calm,-,N/A,,Clear,0,2013-12-08 23:36:00
2:56 PM,21.2,21.2,100,30.30,10.0,Calm,Calm,-,N/A,,Clear,0,2013-12-08 23:56:00
3:16 PM,21.2,21.2,100,30.30,10.0,Calm,Calm,-,N/A,,Scattered Clouds,0,2013-12-09 00:16:00
3:36 PM,21.2,21.2,100,30.29,10.0,Calm,Calm,-,N/A,,Mostly Cloudy,0,2013-12-09 00:36:00
3:56 PM,21.2,21.2,100,30.29,10.0,Calm,Calm,-,N/A,,Mostly Cloudy,0,2013-12-09 00:56:00
4:16 PM,21.2,21.2,100,30.29,10.0,Calm,Calm,-,N/A,,Mostly Cloudy,0,2013-12-09 01:16:00
4:36 PM,21.2,21.2,100,30.28,10.0,Calm,Calm,-,N/A,,Scattered Clouds,0,2013-12-09 01:36:00
4:56 PM,19.4,19.4,100,30.28,10.0,Calm,Calm,-,N/A,,Partly Cloudy,0,2013-12-09 01:56:00
5:16 PM,21.2,21.2,100,30.27,10.0,Calm,Calm,-,N/A,,Clear,0,2013-12-09 02:16:00
5:36 PM,21.2,21.2,100,30.26,10.0,Calm,Calm,-,N/A,,Clear,0,2013-12-09 02:36:00
5:56 PM,21.2,21.2,100,30.26,10.0,Calm,Calm,-,N/A,,Clear,0,2013-12-09 02:56:00
6:16 PM,21.2,21.2,100,30.26,10.0,WSW,3.5,-,N/A,,Clear,240,2013-12-09 03:16:00
6:36 PM,23.0,23.0,100,30.25,10.0,SSW,3.5,-,N/A,,Partly Cloudy,210,2013-12-09 03:36:00
6:56 PM,23.0,23.0,100,30.25,10.0,Calm,Calm,-,N/A,,Scattered Clouds,0,2013-12-09 03:56:00
7:16 PM,21.2,21.2,100,30.25,10.0,SSW,5.8,-,N/A,,Mostly Cloudy,210,2013-12-09 04:16:00
7:36 PM,23.0,23.0,100,30.25,10.0,Calm,Calm,-,N/A,,Partly Cloudy,0,2013-12-09 04:36:00
7:56 PM,23.0,23.0,100,30.25,10.0,Calm,Calm,-,N/A,,Clear,0,2013-12-09 04:56:00
8:16 PM,21.2,21.2,100,30.24,10.0,SW,4.6,-,N/A,,Clear,230,2013-12-09 05:16:00
8:36 PM,21.2,21.2,100,30.24,10.0,Calm,Calm,-,N/A,,Clear,0,2013-12-09 05:36:00
8:56 PM,21.2,21.2,100,30.24,10.0,WSW,3.5,-,N/A,,Clear,250,2013-12-09 05:56:00
9:16 PM,21.2,19.4,93,30.24,10.0,Calm,Calm,-,N/A,,Clear,0,2013-12-09 06:16:00
9:36 PM,21.2,21.2,100,30.24,10.0,Calm,Calm,-,N/A,,Partly Cloudy,0,2013-12-09 06:36:00
9:56 PM,21.2,21.2,100,30.23,10.0,Calm,Calm,-,N/A,,Clear,0,2013-12-09 06:56:00
10:16 PM,21.2,21.2,100,30.23,10.0,SW,3.5,-,N/A,,Clear,230,2013-12-09 07:16:00
10:36 PM,21.2,21.2,100,30.22,10.0,SW,5.8,-,N/A,,Clear,220,2013-12-09 07:36:00
10:56 PM,19.4,19.4,100,30.22,10.0,SW,4.6,-,N/A,,Clear,230,2013-12-09 07:56:00
11:16 PM,21.2,21.2,100,30.22,10.0,SW,5.8,-,N/A,,Clear,230,2013-12-09 08:16:00
11:36 PM,19.4,19.4,100,30.22,10.0,Calm,Calm,-,N/A,,Clear,0,2013-12-09 08:36:00
11:56 PM,19.4,19.4,100,30.22,10.0,WSW,4.6,-,N/A,,Clear,240,2013-12-09 08:56:00